Youngstown, OH

10:30 PM EST on December 11, 2019 (GMT -0500)
Youngstown-Warren Regional

Weather History for KYNG - September, 2019

Change the Weather History Date:

Wednesday, September 18, 2019

  Actual Average Record
Temperature  
Mean Temperature 64 °F 61 °F  
Max Temperature 75 °F 72 °F 90 °F (1955)
Min Temperature 52 °F 51 °F 34 °F (1990)
Degree Days  
Heating Degree Days 1 5  
Month to date heating degree days 11 57  
Since 1 July heating degree days 17 95  
Cooling Degree Days 0 1  
Month to date cooling degree days 62 40  
Year to date cooling degree days 726 526  
Growing Degree Days 14 (Base 50)    
Moisture  
Dew Point 48 °F    
Average Humidity 64    
Maximum Humidity 83    
Minimum Humidity 33    
Precipitation  
Precipitation 0.00 in 0.12 in 2.05 in (2006)
Month to date precipitation 4.30 2.28  
Year to date precipitation 38.82 28.50  
Snow  
Snow 0.00 in 0.00 in - ()
Month to date snowfall 0.0 0.0  
Since 1 July snowfall 0.0 0.0  
Since 1 September snowfall 0.0 0.0  
Snow Depth 0.00 in    
Sea Level Pressure  
Sea Level Pressure 30.21 in    
Wind  
Wind Speed 7 mph ()    
Max Wind Speed 17 mph    
Max Gust Speed 23 mph    
Visibility 10.0 miles    
Events      
T = Trace of Precipitation, MM = Missing Value Source: Averaged Metar Reports

Daily Weather History Graph

Daily Weather History Graph

Search for Another Location

Airport or City:

Astronomy

Sep. 18, 2019 Rise Set
Actual Time 7:05 AM EDT 7:27 PM EDT
Civil Twilight 6:38 AM EDT 7:54 PM EDT
Nautical Twilight 6:05 AM EDT 8:27 PM EDT
Astronomical Twilight 5:32 AM EDT 9:00 PM EDT
Moon 9:57 PM EDT (9/18) 11:09 AM EDT (9/18)
Length of Visible Light 13h 16m
Length of Day
12h 21m
Waning Gibbous, 82% of the Moon is Illuminated
Sep 18
Waning Gibbous
Sep 21
Last Quarter
Sep 28
New
Oct 5
First Quarter
Oct 13
Full

Hourly Weather History & Observations

Time (EDT) Temp. Dew Point Humidity Pressure Visibility Wind Dir Wind Speed Gust Speed Precip Events Conditions
12:51 AM 57.9 °F 52.0 °F 81% 30.17 in 10.0 mi East 6.9 mph - N/A   Clear
1:51 AM 57.0 °F 51.1 °F 81% 30.19 in 10.0 mi East 8.1 mph - N/A   Clear
2:51 AM 57.0 °F 51.1 °F 81% 30.19 in 10.0 mi East 9.2 mph - N/A   Clear
3:51 AM 55.9 °F 50.0 °F 80% 30.18 in 10.0 mi East 9.2 mph - N/A   Clear
4:51 AM 55.0 °F 50.0 °F 83% 30.19 in 10.0 mi East 8.1 mph - N/A   Clear
5:51 AM 55.0 °F 48.9 °F 80% 30.19 in 10.0 mi East 8.1 mph - N/A   Partly Cloudy
6:51 AM 54.0 °F 48.9 °F 83% 30.21 in 10.0 mi East 8.1 mph - N/A   Clear
7:51 AM 55.0 °F 48.9 °F 80% 30.23 in 10.0 mi East 9.2 mph - N/A   Clear
8:51 AM 59.0 °F 51.1 °F 75% 30.24 in 10.0 mi East 9.2 mph - N/A   Clear
9:51 AM 63.0 °F 52.0 °F 67% 30.24 in 10.0 mi East 8.1 mph - N/A   Clear
10:51 AM 66.0 °F 51.1 °F 59% 30.24 in 10.0 mi ESE 12.7 mph - N/A   Clear
11:51 AM 70.0 °F 48.0 °F 46% 30.23 in 10.0 mi East 11.5 mph - N/A   Clear
12:51 PM 72.0 °F 44.1 °F 37% 30.22 in 10.0 mi ESE 16.1 mph - N/A   Clear
1:51 PM 73.0 °F 43.0 °F 34% 30.24 in 10.0 mi East 8.1 mph - N/A   Partly Cloudy
2:51 PM 73.9 °F 44.1 °F 34% 30.22 in 10.0 mi ESE 10.4 mph - N/A   Partly Cloudy
3:51 PM 75.0 °F 44.1 °F 33% 30.21 in 10.0 mi East 11.5 mph - N/A   Partly Cloudy
4:51 PM 75.0 °F 44.1 °F 33% 30.21 in 10.0 mi ESE 8.1 mph - N/A   Partly Cloudy
5:51 PM 73.9 °F 45.0 °F 35% 30.21 in 10.0 mi ENE 6.9 mph - N/A   Partly Cloudy
6:51 PM 69.1 °F 48.0 °F 47% 30.21 in 10.0 mi East 5.8 mph - N/A   Partly Cloudy
7:51 PM 61.0 °F 51.1 °F 70% 30.22 in 10.0 mi East 4.6 mph - N/A   Partly Cloudy
8:51 PM 55.0 °F 50.0 °F 83% 30.23 in 10.0 mi East 4.6 mph - N/A   Partly Cloudy
9:51 PM 57.0 °F 50.0 °F 77% 30.23 in 10.0 mi SSE 3.5 mph - N/A   Partly Cloudy
10:51 PM 55.0 °F 48.9 °F 80% 30.22 in 10.0 mi East 4.6 mph - N/A   Partly Cloudy
11:51 PM 55.9 °F 46.9 °F 72% 30.22 in 10.0 mi East 5.8 mph - N/A   Partly Cloudy